Skip Page Navigation
NASA JPL Caltech
NASA Logo - Jet Propulsion Laboratory + View the NASA Portal
+ Near-Earth Object (NEO) Program
Search JPL
JPL Home Earth Solar System Stars & Galaxies Technology
JPL Solar System Dynamics
BODIES ORBITS EPHEMERIDES TOOLS PHYSICAL DATA DISCOVERY FAQ SITE MAP
JPL Small-Body Database Browser
Search: [ help ]  
73708 (1992 DV)
Classification: Main-belt Asteroid          SPK-ID: 2073708
Ephemeris | Orbit Diagram | Orbital Elements | Physical Parameters | Discovery Circumstances | Close-Approach Data ]

[ show orbit diagram ]
Orbital Elements at Epoch 2456800.5 (2014-May-23.0) TDB
Reference: JPL 8 (heliocentric ecliptic J2000)
 Element Value Uncertainty (1-sigma)   Units 
e .2884502683756083 8.2798e-08  
a 2.677699135984511 1.7407e-08 AU
q 1.905316101580644 2.1825e-07 AU
i 7.945766012612788 9.7568e-06 deg
node 149.5225971222974 6.6187e-05 deg
peri 5.327322861059784 6.9202e-05 deg
M 33.10425137938027 1.6317e-05 deg
tp 2456653.328957936867
(2013-Dec-26.82895794)
7.1977e-05 JED
period 1600.446254940197
4.38
1.5606e-05
4.273e-08
d
yr
n .2249372628969987 2.1934e-09 deg/d
Q 3.450082170388377 2.2428e-08 AU
  Orbit Determination Parameters
   # obs. used (total)      330  
   data-arc span      8077 days (22.11 yr)  
   first obs. used      1992-02-25  
   last obs. used      2014-04-07  
   planetary ephem.      DE431  
   SB-pert. ephem.      SB431-BIG16  
   condition code      0  
   fit RMS      .60967  
   data source      ORB  
   producer      Otto Matic  
   solution date      2014-Apr-17 15:21:09  

Additional Information
 Earth MOID = .915947 AU 
 T_jup = 3.304 
[ show covariance matrix ]

Ephemeris | Orbit Diagram | Orbital Elements | Physical Parameters | Discovery Circumstances | Close-Approach Data ]

Physical Parameter Table
Parameter Symbol Value Units Sigma Reference Notes
absolute magnitude H 15.2 mag n/a MPO280220  

73708 (1992 DV)          Discovered 1992-Feb-25 by Ueda, S., Kaneda, H. at Kushiro (399)
Reference: 20040415/Numbers.arcLast Updated: 2004-04-19

[ show close-approach data ]
Ephemeris | Orbit Diagram | Orbital Elements | Physical Parameters | Discovery Circumstances | Close-Approach Data ]
ABOUT SSD CREDITS/AWARDS PRIVACY/COPYRIGHT GLOSSARY LINKS
FirstGov 2014-Apr-23 17:00 UT
(server date/time)  
NASA Home Page
Site Manager:   Donald K. Yeomans
Webmaster  Alan B. Chamberlin